Regional Weather Roundup
Issued by NWS

Home | Current Version | Previous Version | Text Only | Print | Product List | Glossary On
Versions: 1 2 3 4 5 6 7 8 9 10 11 12 13 14 15 16 17 18 19 20 21 22 23 24 25 26 27 28 29 30 31 32 33 34 35 36 37 38 39 40 41 42 43 44 45 46 47 48 49 50
000
ASUS43 KOAX 291410
RWRNE

WEATHER ROUNDUP FOR NEBRASKA
NATIONAL WEATHER SERVICE OMAHA NE
800 AM CST THU JAN 29 2015

NOTES: SATELLITE DATA IS BEING USED TO AUGMENT CLOUD COVER ABOVE
       12000 FEET.
       "FAIR" INDICATES FEW OR NO CLOUDS BELOW 12,000 FEET WITH NO
       SIGNIFICANT WEATHER AND/OR OBSTRUCTIONS TO VISIBILITY.

  * THESE STATIONS DO NOT REPORT WEATHER SUCH AS RAIN...SNOW OR FOG.

NEZ001>004-019>022-054>056-291500-
NEBRASKA PANHANDLE

CITY           SKY/WX    TMP DP  RH WIND       PRES   REMARKS
SCOTTSBLUFF    CLEAR     29  24  82 W9        30.46R WCI  20
ALLIANCE       CLEAR     19  17  92 CALM      30.44R
CHADRON        CLEAR     24  21  88 W3        30.47R
KIMBALL        CLEAR     29  22  76 NW7       30.43R WCI  21
SIDNEY         CLEAR     26  20  77 NW8       30.43R WCI  18
$$

NEZ057>060-069>072-079>082-291500-
SOUTHWEST NEBRASKA

CITY           SKY/WX    TMP DP  RH WIND       PRES   REMARKS
NORTH PLATTE   CLEAR     23  21  92 NW7       30.43R WCI  15
IMPERIAL       PTCLDY    29  23  78 NW9       30.46R WCI  20
LEXINGTON      CLOUDY    36  24  63 N21G29    30.41R WCI  25
MCCOOK         CLEAR     28  23  81 W10       30.45R WCI  19
OGALLALA       CLEAR     28  25  89 N6        30.45R WCI  21
$$

NEZ005>010-023>029-035>040-094-291500-
NORTH CENTRAL NEBRASKA

CITY           SKY/WX    TMP DP  RH WIND       PRES   REMARKS
VALENTINE      CLOUDY    35  24  64 NW15G24   30.41R WCI  25
AINSWORTH      CLOUDY    34  24  68 N24G33    30.39R WCI  21
BROKEN BOW     CLOUDY    36  24  62 N25G36    30.38R WCI  24
O`NEILL        CLOUDY    35  28  75 NW21G26   30.37R WCI  24
ORD            CLOUDY    35  24  64 N25G36    30.36R WCI  23
THEDFORD       CLOUDY    34  25  68 N22G32    30.41R WCI  23
$$

NEZ041-046>049-061>064-073>077-083>087-291500-
SOUTH CENTRAL NEBRASKA

CITY           SKY/WX    TMP DP  RH WIND       PRES   REMARKS
GRAND ISLAND   CLOUDY    36  26  67 NW24G30   30.37R WCI  24
AURORA         CLOUDY    37  26  65 N16G37    30.35R WCI  27
HASTINGS       CLOUDY    36  24  62 NW24G32   30.36R WCI  24
HEBRON         CLOUDY    39  26  60 N17G25    30.35R WCI  30
HOLDREGE       CLOUDY    36  24  62 N22G31    30.39R WCI  24
KEARNEY *      CLOUDY    36  23  60 N24G32    30.39R WCI  24
YORK           CLOUDY    37  27  65 N21G31    30.33R WCI  27
$$

NEZ011>018-030>034-042>045-291500-
NORTHEAST NEBRASKA

CITY           SKY/WX    TMP DP  RH WIND       PRES   REMARKS
NORFOLK        CLOUDY    36  29  75 N24       30.32R WCI  24
ALBION         CLOUDY    36  26  67 N20G29    30.34R WCI  25
BLAIR          CLOUDY    36  28  72 NW23G33   30.26R WCI  24
COLUMBUS *     CLOUDY    36  25  64 N26G35    30.33R WCI  23
FREMONT        CLOUDY    37  30  75 NW20G32   30.30R WCI  27
WAYNE          CLOUDY    35  28  76 N20G31    30.31R WCI  24
$$

NEZ050>053-065>068-078-088>093-291500-
SOUTHEAST NEBRASKA

CITY           SKY/WX    TMP DP  RH WIND       PRES   REMARKS
LINCOLN        CLOUDY    38  29  70 N22G28    30.32R WCI  27
OMAHA EPPLEY   CLOUDY    36  27  69 N22G29    30.27R WCI  25
BEATRICE       CLOUDY    37  28  71 N20G32    30.32R WCI  27
FALLS CITY     CLOUDY    38  26  62 NW18G30   30.26R WCI  28
NEBRASKA CITY  CLOUDY    37  24  60 N24G37    30.26R WCI  25
PLATTSMOUTH    CLOUDY    36  27  69 NW24G35   30.26R WCI  24
$$

NEZ044-045-051>053-067-291500-
OMAHA AREA

CITY           SKY/WX    TMP DP  RH WIND       PRES   REMARKS
OMAHA EPPLEY   CLOUDY    36  27  69 N22G29    30.27R WCI  25
BLAIR          CLOUDY    36  28  72 NW23G33   30.26R WCI  24
FREMONT        CLOUDY    37  30  75 NW20G32   30.30R WCI  27
MILLARD        CLOUDY    37  28  71 NW17G28   30.28R WCI  27
OFFUTT AFB     CLOUDY    37  28  70 NW15      30.27R WCI  28
PLATTSMOUTH    CLOUDY    36  27  69 NW24G35   30.26R WCI  24
WAHOO          CLOUDY    37  28  70 N20G26    30.30R WCI  26
$$


USA.gov is the U.S. government's official web portal to all federal, state and local government web resources and services.